Miscellaneous Local Product
Issued by NWS Hastings, NE

Home | Current Version | Previous Version | Text Only | Print | Product List | Glossary On
Versions: 1 2 3 4 5 6 7 8 9 10 11 12 13 14 15 16 17 18 19 20 21 22 23 24 25 26 27 28 29 30 31 32 33 34 35 36 37 38 39 40 41 42 43 44 45 46 47 48 49 50
000
AXUS43 KGID 290102
MISGRI

GID CWA HOURLY WEATHER ROUNDUP
NATIONAL WEATHER SERVICE HASTINGS NE
800 PM CDT THU MAY 28 2015

NOTE: "FAIR" INDICATES FEW OR NO CLOUDS BELOW 12,000 FEET WITH NO
SIGNIFICANT WEATHER AND/OR OBSTRUCTIONS TO VISIBILITY.

...SOUTH CENTRAL NEBRASKA...

CITY           SKY/WX    TMP DP  RH WIND       PRES   REMARKS
GRAND ISLAND   CLOUDY    75  58  55 S12       29.88R
HASTINGS       CLOUDY    73  59  61 S7        29.90R
KEARNEY        CLOUDY    73  61  64 S13       29.90R
ORD            MOCLDY    73  59  61 SE6       29.87R
YORK           MOCLDY    77  63  61 S12       29.89R
AURORA         CLOUDY    75  58  55 S9        29.88S
LEXINGTON      CLOUDY    74  60  61 S13       29.90R
HOLDREGE       CLOUDY    73  59  60 S14       29.90R
HEBRON         MOCLDY    75  59  57 S8        29.91R

...NEBRASKA PANHANDLE...

CITY           SKY/WX    TMP DP  RH WIND       PRES   REMARKS
CHADRON        TSTM      61  49  64 N14G31    29.97R
ALLIANCE       CLOUDY    63  54  72 NE9       29.92S
SCOTTSBLUFF    CLOUDY    68  54  60 NE14      29.92R
SIDNEY         CLOUDY    57  54  89 CALM      29.94F

...WESTERN AND NORTH CENTRAL NEBRASKA...

CITY           SKY/WX    TMP DP  RH WIND       PRES   REMARKS
VALENTINE      CLOUDY    67  56  67 SW3       29.86F
AINSWORTH      PTSUNNY   67  62  82 NW5       29.90R
ONEILL         CLOUDY    75  61  60 SW10      29.87R
BROKEN BOW     CLOUDY    73  60  63 S9        29.90R
IMPERIAL       LGT RAIN  57  53  86 W7        30.01R
NORTH PLATTE   TSTM      60  53  77 W25G35    29.94R
MCCOOK         CLOUDY    71  59  65 S17       29.94R

...EASTERN NEBRASKA...

CITY           SKY/WX    TMP DP  RH WIND       PRES   REMARKS
NORFOLK        CLEAR     73  64  73 SE12      29.87S
SO SIOUX CITY  MOCLDY    72  63  73 S14       29.89R
TEKAMAH        MOCLDY    72  64  78 SE15      29.88F
COLUMBUS       MOCLDY    73  63  68 SE12      29.89R
ALBION         MOCLDY    75  58  55 S7        29.87S
OMAHA EPPLEY   MOCLDY    71  63  75 SE14      29.91F
MILLARD        CLOUDY    73  65  76 SE10      29.91S
LINCOLN        PTCLDY    73  65  75 SE15      29.90S
NEBRASKA CITY  CLEAR     70  62  75 SE9       29.94S
BEATRICE       PTCLDY    73  65  77 S8        29.91R
FALLS CITY     PTCLDY    71  62  73 S8        29.93S

...NORTHERN KANSAS...

CITY           SKY/WX    TMP DP  RH WIND       PRES   REMARKS
GOODLAND       CLOUDY    59  51  75 N8        30.02R
HILL CITY      LGT RAIN  62  55  77 SW17G26   29.97R
NORTON         LGT RAIN  68  46  45 S22G31    29.93R
SMITH CENTER   MOCLDY    70  63  78 SE7       29.92R
HAYS           CLOUDY    59  52  77 NW28G39   29.95R THUNDER
RUSSELL        CLOUDY    72  66  81 S9        29.90R
CONCORDIA      CLOUDY    72  63  73 S7        29.92R
SALINA         MOCLDY    75  64  68 S9        29.92R
TOPEKA         CLEAR     73  64  73 SE6       29.96R



USA.gov is the U.S. government's official web portal to all federal, state and local government web resources and services.